Location: Glencoe Junction
(41.7313°N, 110.5602°W)
Time: 18:12:07
(UTC+00:00)

ISS - Visible Passes

Search period start: 21 January 2022 00:00
Search period end: 31 January 2022 00:00
Orbit: 413 x 423 km, 51.6° (Epoch: 21 January)

Date Brightness Start Highest point End Pass type
(mag) Time Alt. Az. Time Alt. Az. Time Alt. Az.
21 Jan -3.6 00:57:03 10° SW 01:00:19 58° SE 01:03:34 10° ENE visible
21 Jan -1.7 02:34:27 10° W 02:36:31 23° NW 02:36:31 23° NW visible
22 Jan -2.5 01:46:11 10° W 01:49:16 34° NNW 01:50:42 23° NNE visible
23 Jan -3.2 00:58:10 10° WSW 01:01:26 51° NNW 01:04:42 10° NE visible
23 Jan -1.2 02:36:28 10° NW 02:37:54 16° NNW 02:37:54 16° NNW visible
24 Jan -1.8 01:48:21 10° WNW 01:50:56 20° NNW 01:52:14 17° NNE visible
25 Jan -2.1 01:00:22 10° W 01:03:13 25° NNW 01:06:04 10° NE visible
25 Jan -1.0 02:38:51 10° NW 02:39:36 13° NNW 02:39:36 13° NNW visible
26 Jan -1.6 01:51:05 10° NW 01:53:11 16° N 01:54:07 14° NNE visible
27 Jan -1.6 01:03:19 10° NW 01:05:39 17° N 01:07:57 10° NNE visible
27 Jan -1.0 02:41:10 10° NNW 02:41:43 12° NNW 02:41:43 12° NNW visible
28 Jan -1.6 01:53:54 10° NW 01:55:59 15° N 01:56:27 15° NNE visible
29 Jan -1.6 01:06:38 10° NW 01:08:38 15° N 01:10:39 10° NE visible
29 Jan -1.1 02:43:34 10° NW 02:44:20 14° NNW 02:44:20 14° NNW visible
30 Jan -2.0 01:56:41 10° NW 01:59:12 19° NNE 01:59:23 19° NNE visible
